Weather History for Richlands, VA

Change the Weather History Date:

Friday, October 4, 2013

  Actual Average (KBLF) Record (KBLF)
Temperature  
Mean Temperature 70 °F 60 °F  
Max Temperature 78 °F 69 °F 82 °F (2013)
Min Temperature 61 °F 51 °F 30 °F (1974)
Degree Days  
Heating Degree Days 0 6  
Month to date heating degree days 24  
Since 1 July heating degree days 103  
Cooling Degree Days 4 1  
Month to date cooling degree days 4  
Year to date cooling degree days 836  
Growing Degree Days 20 (Base 50)    
Moisture  
Dew Point 61 °F    
Average Humidity 75    
Maximum Humidity 94    
Minimum Humidity 55    
Precipitation  
Precipitation 0.00 in 0.09 in 1.18 in (1992)
Month to date precipitation 0.35  
Year to date precipitation 31.88  
Snow  
Snow 0.00 in - - ()
Month to date snowfall  
Since 1 July snowfall  
Since 1 September snowfall  
Snow Depth -    
Sea Level Pressure  
Sea Level Pressure 30.21 in    
Wind  
Wind Speed 1 mph (SW)    
Max Wind Speed 6 mph    
Max Gust Speed -    
Visibility 10 miles    
Events      
T = Trace of Precipitation, MM = Missing Value Source: NWS Daily Summary

Daily Weather History Graph

Daily Weather History Graph

Search for Another Location

Airport:

Trip Planner

Search our weather history database for the weather conditions in past years. The results will help you decide how hot, cold, wet, or windy it might be!

Date:

Astronomy

Oct. 04, 2013 Rise Set
Actual Time 7:25 AM EDT 7:05 PM EDT
Civil Twilight 6:59 AM EDT 7:31 PM EDT
Nautical Twilight 6:29 AM EDT 8:01 PM EDT
Astronomical Twilight 5:59 AM EDT 8:31 PM EDT
Moon 6:59 AM EDT (10/4) 6:48 PM EDT (10/4)
Length of Visible Light 12h 32m
Length of Day
11h 40m
Waning Crescent, 0% of the Moon is Illuminated
Oct 4
Waning Crescent
Oct 4
New
Oct 11
First Quarter
Oct 18
Full
Oct 26
Last Quarter

Hourly Weather History & Observations

Time (EDT) Temp. Dew Point Humidity Pressure Visibility Wind Dir Wind Speed Gust Speed Precip Events Conditions
12:35 AM 66.0 °F 60.1 °F 81% 30.19 in 10.0 mi Calm Calm - N/A   Clear
12:55 AM 64.2 °F 60.4 °F 87% 30.19 in 10.0 mi Calm Calm - N/A   Clear
1:15 AM 66.4 °F 60.3 °F 81% 30.19 in 10.0 mi Calm Calm - N/A   Clear
1:35 AM 64.8 °F 60.4 °F 86% 30.19 in 10.0 mi Calm Calm - N/A   Clear
1:55 AM 63.0 °F 60.3 °F 91% 30.19 in 10.0 mi Calm Calm - N/A   Clear
2:15 AM 62.2 °F 60.4 °F 94% 30.19 in 0.8 mi NNW 3.5 mph - N/A   Mist
2:35 AM 63.9 °F 62.1 °F 94% 30.19 in 7.0 mi Calm Calm - N/A   Scattered Clouds
2:55 AM 62.4 °F 60.4 °F 93% 30.19 in 5.0 mi Calm Calm - N/A   Clear
3:15 AM 61.9 °F 59.9 °F 93% 30.19 in 5.0 mi SE 3.5 mph - N/A   Clear
3:35 AM 62.8 °F 60.6 °F 93% 30.18 in 7.0 mi Calm Calm - N/A   Clear
3:55 AM 65.3 °F 59.9 °F 83% 30.18 in 10.0 mi SSE 3.5 mph - N/A   Clear
4:15 AM 62.6 °F 59.9 °F 91% 30.18 in 7.0 mi Calm Calm - N/A   Clear
4:35 AM 63.1 °F 60.1 °F 90% 30.18 in 10.0 mi Calm Calm - N/A   Clear
4:55 AM 63.1 °F 59.5 °F 88% 30.19 in 10.0 mi Calm Calm - N/A   Clear
5:15 AM 62.6 °F 59.9 °F 91% 30.19 in 10.0 mi Calm Calm - N/A   Clear
5:35 AM 63.5 °F 59.7 °F 87% 30.19 in 10.0 mi SSE 3.5 mph - N/A   Clear
5:55 AM 63.9 °F 59.4 °F 85% 30.19 in 10.0 mi SSE 3.5 mph - N/A   Clear
6:15 AM 64.4 °F 59.4 °F 84% 30.20 in 10.0 mi Calm Calm - N/A   Clear
6:35 AM 64.6 °F 59.4 °F 83% 30.20 in 10.0 mi Calm Calm - N/A   Clear
6:55 AM 64.8 °F 59.2 °F 82% 30.20 in 10.0 mi Calm Calm - N/A   Clear
7:15 AM 61.9 °F 59.4 °F 91% 30.21 in 10.0 mi Calm Calm - N/A   Scattered Clouds
7:35 AM 63.5 °F 59.7 °F 87% 30.23 in 10.0 mi Calm Calm - N/A   Overcast
7:55 AM 62.8 °F 59.5 °F 89% 30.23 in 10.0 mi Calm Calm - N/A   Overcast
8:35 AM 65.3 °F 60.3 °F 84% 30.24 in 10.0 mi Calm Calm - N/A   Overcast
8:55 AM 63.9 °F 61.0 °F 90% 30.24 in 7.0 mi Calm Calm - N/A   Overcast
9:15 AM 64.6 °F 61.2 °F 89% 30.25 in 10.0 mi Calm Calm - N/A   Overcast
9:35 AM 66.4 °F 61.7 °F 85% 30.26 in 10.0 mi SW 3.5 mph - N/A   Overcast
9:55 AM 67.3 °F 62.6 °F 85% 30.26 in 10.0 mi Calm Calm - N/A   Overcast
10:15 AM 67.6 °F 62.6 °F 84% 30.26 in 10.0 mi SW 4.6 mph - N/A   Overcast
10:35 AM 68.9 °F 63.0 °F 81% 30.26 in 10.0 mi SSW 3.5 mph - N/A   Mostly Cloudy
10:55 AM 69.1 °F 63.5 °F 82% 30.26 in 10.0 mi Calm Calm - N/A   Mostly Cloudy
11:15 AM 71.4 °F 62.4 °F 73% 30.25 in 10.0 mi WSW 4.6 mph - N/A   Scattered Clouds
11:35 AM 72.3 °F 62.4 °F 71% 30.25 in 10.0 mi Calm Calm - N/A   Clear
11:55 AM 73.2 °F 62.2 °F 68% 30.25 in 10.0 mi WNW 3.5 mph - N/A   Clear
12:15 PM 74.1 °F 62.8 °F 68% 30.25 in 10.0 mi NNW 3.5 mph - N/A   Clear
12:35 PM 74.8 °F 62.2 °F 65% 30.24 in 10.0 mi Calm Calm - N/A   Scattered Clouds
12:55 PM 75.2 °F 62.4 °F 64% 30.24 in 10.0 mi WSW 3.5 mph - N/A   Mostly Cloudy
1:15 PM 75.2 °F 62.2 °F 64% 30.23 in 10.0 mi Calm Calm - N/A   Mostly Cloudy
1:35 PM 75.2 °F 61.9 °F 63% 30.23 in 10.0 mi Calm Calm - N/A   Scattered Clouds
1:55 PM 78.1 °F 61.0 °F 56% 30.21 in 10.0 mi WSW 4.6 mph - N/A   Scattered Clouds
2:15 PM 78.3 °F 61.9 °F 57% 30.21 in 10.0 mi WSW 3.5 mph - N/A   Overcast
2:35 PM 75.7 °F 61.7 °F 62% 30.20 in 10.0 mi Calm Calm - N/A   Mostly Cloudy
2:55 PM 77.2 °F 62.1 °F 59% 30.19 in 10.0 mi Calm Calm - N/A   Scattered Clouds
3:15 PM 77.5 °F 61.2 °F 57% 30.19 in 10.0 mi Calm Calm - N/A   Clear
3:35 PM 78.6 °F 61.2 °F 55% 30.19 in 10.0 mi WNW 4.6 mph - N/A   Scattered Clouds
3:55 PM 77.7 °F 62.1 °F 58% 30.19 in 10.0 mi NNW 3.5 mph - N/A   Mostly Cloudy
4:15 PM 77.9 °F 61.9 °F 58% 30.19 in 10.0 mi NNW 5.8 mph - N/A   Mostly Cloudy
4:35 PM 78.1 °F 62.1 °F 58% 30.19 in 10.0 mi Calm Calm - N/A   Scattered Clouds
4:55 PM 77.9 °F 62.2 °F 58% 30.19 in 10.0 mi NNW 4.6 mph - N/A   Scattered Clouds
5:15 PM 77.2 °F 61.7 °F 59% 30.19 in 10.0 mi NW 3.5 mph - N/A   Mostly Cloudy
5:35 PM 77.4 °F 62.1 °F 59% 30.19 in 10.0 mi Calm Calm - N/A   Scattered Clouds
5:55 PM 75.6 °F 61.9 °F 62% 30.19 in 10.0 mi Calm Calm - N/A   Clear
6:15 PM 76.1 °F 61.3 °F 60% 30.19 in 10.0 mi Calm Calm - N/A   Clear
6:35 PM 76.3 °F 61.3 °F 60% 30.19 in 10.0 mi Calm Calm - N/A   Scattered Clouds
6:55 PM 75.4 °F 61.2 °F 61% 30.19 in 10.0 mi Calm Calm - N/A   Scattered Clouds
7:15 PM 74.7 °F 60.8 °F 62% 30.19 in 10.0 mi Calm Calm - N/A   Clear
7:35 PM 73.2 °F 60.8 °F 65% 30.20 in 10.0 mi Calm Calm - N/A   Clear
7:55 PM 72.9 °F 60.6 °F 65% 30.20 in 10.0 mi Calm Calm - N/A   Clear
8:15 PM 72.5 °F 62.6 °F 71% 30.20 in 10.0 mi Calm Calm - N/A   Clear
8:35 PM 72.1 °F 61.9 °F 70% 30.21 in 10.0 mi Calm Calm - N/A   Clear
8:55 PM 70.2 °F 62.8 °F 77% 30.21 in 10.0 mi SE 3.5 mph - N/A   Clear
9:15 PM 69.8 °F 62.6 °F 78% 30.21 in 10.0 mi Calm Calm - N/A   Clear
9:35 PM 69.3 °F 61.9 °F 77% 30.22 in 10.0 mi South 3.5 mph - N/A   Clear
9:55 PM 68.5 °F 61.9 °F 79% 30.23 in 10.0 mi SSE 5.8 mph - N/A   Clear
10:15 PM 69.4 °F 61.3 °F 75% 30.22 in 10.0 mi SSE 4.6 mph - N/A   Clear
10:35 PM 69.6 °F 61.0 °F 74% 30.22 in 10.0 mi South 3.5 mph - N/A   Clear
10:55 PM 69.8 °F 60.4 °F 72% 30.22 in 10.0 mi Calm Calm - N/A   Clear
11:15 PM 68.2 °F 61.0 °F 78% 30.22 in 10.0 mi SSE 3.5 mph - N/A   Clear
11:35 PM 66.9 °F 60.6 °F 80% 30.21 in 10.0 mi Calm Calm - N/A   Clear
11:55 PM 68.2 °F 60.4 °F 76% 30.21 in 10.0 mi SSE 4.6 mph - N/A   Clear